Regional Weather Roundup
Issued by NWS Little Rock, AR

Home | Current Version | Previous Version | Graphics & Text | Print | Product List | Glossary On
Versions: 1 2 3 4 5 6 7 8 9 10 11 12 13 14 15 16 17 18 19 20 21 22 23 24 25 26 27 28 29 30 31 32 33 34 35 36 37 38 39 40 41 42 43 44 45 46 47 48 49 50
954
ASUS44 KLZK 270905
RWRLZK

WEATHER ROUNDUP FOR ARKANSAS
NATIONAL WEATHER SERVICE LITTLE ROCK AR
400 AM CDT MON MAR 27 2017

NOTE: "FAIR" INDICATES FEW OR NO CLOUDS BELOW 12,000 FEET WITH NO
SIGNIFICANT WEATHER AND/OR OBSTRUCTIONS TO VISIBILITY.

ARZ001-003-010-029-271000-
NORTHWEST ARKANSAS

CITY           SKY/WX    TMP DP  RH WIND       PRES   REMARKS
FAYETTEVILLE   CLOUDY    56  55  97 NW7       29.76S
FORT SMITH     CLOUDY    58  55  90 NE6       29.76R
HARRISON       CLOUDY    56  54  93 S8        29.78F
BENTONVILLE    CLOUDY    57  54  88 NE9       29.78F THUNDER
ROGERS         TSTM      57  54  89 NE6       29.80F
SILOAM SPGS    CLOUDY    57  52  82 E8        29.76F THUNDER
HIGHFILL       TSTM      57  55  93 NE8       29.76F FOG
$$

ARZ004-005-016-271000-
NORTH CENTRAL ARKANSAS

CITY           SKY/WX    TMP DP  RH WIND       PRES   REMARKS
BATESVILLE     CLOUDY    59  55  88 W10       29.91R
FLIPPIN        CLOUDY    57  52  82 E12       29.79F
MTN HOME       RAIN      56  55  97 S9        29.83F
$$

ARZ040-041-271000-
WEST CENTRAL ARKANSAS

CITY           SKY/WX    TMP DP  RH WIND       PRES   REMARKS
MENA           MOCLDY    59  59 100 CALM      29.82F
MOUNT IDA      CLOUDY    57  55  93 CALM      29.82R
$$

ARZ009-017-025-026-028-271000-
NORTHEAST ARKANSAS

CITY           SKY/WX    TMP DP  RH WIND       PRES   REMARKS
CORNING        CLOUDY    59  55  88 SE17      29.81F
JONESBORO      CLOUDY    61  55  81 S10       29.83F
NEWPORT        RAIN      63  57  81 W22G31    29.88R
WALNUT RIDGE   CLOUDY    61  52  72 SE15      29.79F
BLYTHEVILLE    CLOUDY    59  54  83 SE5       29.87S
$$

ARZ022-023-033-042-044-271000-
CENTRAL ARKANSAS

CITY           SKY/WX    TMP DP  RH WIND       PRES   REMARKS
LITTLE ROCK    TSTM      58  58 100 SE5       29.91F
N LITTLE ROCK    N/A     58  56  91 W6        29.90F
JACKSONVILLE   TSTM      59  59 100 CALM      29.89F FOG
CONWAY           N/A     59  59 100 E8        29.85F
SEARCY         RAIN      59  58  96 W7        29.94R
HOT SPRINGS    CLOUDY    58  57  97 E8        29.87F
RUSSELLVILLE   CLOUDY    58  57  97 E10G20    29.79F
CLINTON        HVY RAIN  59  57  94 SE7       29.90S
$$

ARZ036-271000-
EAST ARKANSAS

CITY           SKY/WX    TMP DP  RH WIND       PRES   REMARKS
WEST MEMPHIS   CLOUDY    65  58  78 S13       29.87R
$$

ARZ050-053-066-070-073-271000-
SOUTHWEST ARKANSAS

CITY           SKY/WX    TMP DP  RH WIND       PRES   REMARKS
ARKADELPHIA    FAIR      59  58  96 N6        29.87F
CAMDEN         LGT RAIN  68  59  73 SE7       29.87F
TEXARKANA      PTCLDY    67  63  87 S13       29.81F
EL DORADO      CLOUDY    68  63  84 S7        29.89R
DE QUEEN       CLOUDY    58  58 100 E5        29.79F
$$

ARZ056-057-069-271000-
SOUTHEAST ARKANSAS

CITY           SKY/WX    TMP DP  RH WIND       PRES   REMARKS
PINE BLUFF     CLOUDY    67  61  81 W6        29.92R
STUTTGART      CLOUDY    66  55  68 SW9       29.91R
MONTICELLO     CLOUDY    69  63  81 SW6       29.92R

$$






USA.gov is the U.S. government's official web portal to all federal, state and local government web resources and services.